Charlottetown, Prince Edward Island

9:11 AM ADT on June 22, 2017 (GMT -0300)
Charlottetown

Weather History for CYYG - April, 2012

Change the Weather History Date:

Saturday, April 21, 2012

  Actual Average Record
Temperature  
Mean Temperature 52 °F -  
Max Temperature 65 °F 53 °F 65 °F (2012)
Min Temperature 38 °F 36 °F 24 °F (2013)
Degree Days  
Heating Degree Days 14    
Growing Degree Days 2 (Base 50)    
Moisture  
Dew Point 42 °F    
Average Humidity 71    
Maximum Humidity 93    
Minimum Humidity 38    
Precipitation  
Precipitation 0.24 in 0.12 in - ()
Sea Level Pressure  
Sea Level Pressure 29.96 in    
Wind  
Wind Speed 11 mph ()    
Max Wind Speed 23 mph    
Max Gust Speed 28 mph    
Visibility 14.1 miles    
Events Rain    
Averages and records for this station are not official NWS values.
T = Trace of Precipitation, MM = Missing Value Source: Averaged Metar Reports

Daily Weather History Graph

Daily Weather History Graph

Search for Another Location

Airport or City:

Trip Planner

Search our weather history database for the weather conditions in past years. The results will help you decide how hot, cold, wet, or windy it might be!

Date:

Astronomy

Apr. 21, 2012 Rise Set
Actual Time 6:14 AM ADT 8:08 PM ADT
Civil Twilight 5:42 AM ADT 8:40 PM ADT
Nautical Twilight 5:02 AM ADT 9:20 PM ADT
Astronomical Twilight 4:19 AM ADT 10:04 PM ADT
Moon 6:05 AM ADT (4/21) 8:50 PM ADT (4/21)
Length of Visible Light 14h 58m
Length of Day
13h 54m
New Moon, 0% of the Moon is Illuminated
Apr 21
New Moon
Apr 29
First Quarter
May 6
Full
May 12
Last Quarter
May 20
New

Hourly Weather History & Observations

Time (ADT) Temp. Windchill Dew Point Humidity Pressure Visibility Wind Dir Wind Speed Gust Speed Precip Events Conditions
12:00 AM 41.0 °F 38.0 °F 37.4 °F 87% 30.03 in 15.0 mi SE 4.6 mph - N/A   Scattered Clouds
1:00 AM 41.0 °F 38.0 °F 37.4 °F 87% 30.01 in 15.0 mi SE 4.6 mph - N/A   Scattered Clouds
2:00 AM 41.0 °F 38.0 °F 37.4 °F 87% 30.01 in 15.0 mi SSE 4.6 mph - N/A   Partly Cloudy
3:00 AM 41 °F - 38 °F 85% 30.00 in 15 mi South 6.9 mph - -   Scattered Clouds
4:00 AM 44.6 °F 39.7 °F 41.0 °F 87% 30.00 in 15.0 mi SSW 9.2 mph - N/A   Scattered Clouds
5:00 AM 41.0 °F 36.4 °F 37.4 °F 87% 30.00 in 15.0 mi SSW 6.9 mph - N/A   Scattered Clouds
6:00 AM 41.0 °F 36.4 °F 39.2 °F 93% 30.00 in 15.0 mi South 6.9 mph - N/A   Partly Cloudy
7:00 AM 42.8 °F 37.5 °F 39.2 °F 87% 30.00 in 15.0 mi South 9.2 mph - N/A   Partly Cloudy
8:00 AM 46.4 °F 41.1 °F 39.2 °F 76% 29.99 in 15.0 mi South 11.5 mph - N/A   Mostly Cloudy
9:00 AM 50 °F - 37 °F 51% 30.00 in 15 mi South 13.8 mph - -   Scattered Clouds
9:00 AM 50.0 °F - 37.4 °F 62% 30.00 in 15.0 mi South 15.0 mph - N/A   Mostly Cloudy
10:00 AM 51.8 °F - 39.2 °F 62% 29.99 in 15.0 mi South 17.3 mph 24.2 mph N/A   Mostly Cloudy
11:00 AM 53.6 °F - 42.8 °F 67% 29.98 in 15.0 mi South 21.9 mph - N/A   Mostly Cloudy
12:00 PM 55.4 °F - 44.6 °F 67% 29.98 in 15.0 mi South 19.6 mph 27.6 mph N/A   Mostly Cloudy
1:00 PM 62.6 °F - 44.6 °F 52% 29.95 in 15.0 mi South 15.0 mph 23.0 mph N/A   Mostly Cloudy
2:00 PM 64.4 °F - 44.6 °F 49% 29.93 in 15.0 mi South 21.9 mph - N/A   Mostly Cloudy
3:00 PM 63 °F - 44 °F 38% 29.91 in 15 mi South 19.6 mph - -   Mostly Cloudy
3:00 PM 62.6 °F - 44.6 °F 52% 29.91 in 15.0 mi South 19.6 mph - N/A   Mostly Cloudy
4:00 PM 60.8 °F - 42.8 °F 52% 29.91 in 15.0 mi South 20.7 mph 27.6 mph N/A   Mostly Cloudy
5:00 PM 59.0 °F - 41.0 °F 51% 29.90 in 15.0 mi South 23.0 mph - N/A   Mostly Cloudy
5:12 PM 60.8 °F - - N/A% - 15.0 mi South 20.7 mph - N/A Rain Light Rain Showers
6:00 PM 60.8 °F - 42.8 °F 52% 29.89 in 15.0 mi South 17.3 mph 25.3 mph N/A Rain Light Rain Showers
7:00 PM 57.2 °F - 44.6 °F 63% 29.89 in 15.0 mi South 20.7 mph 27.6 mph N/A Rain Light Rain Showers
8:00 PM 53.6 °F - 46.4 °F 77% 29.90 in 15.0 mi South 17.3 mph - N/A Rain Light Rain Showers
9:00 PM 51 °F - 47 °F 83% 29.91 in 6 mi South 10.4 mph - - Rain Heavy Rain Showers
9:00 PM 51.8 °F - 48.2 °F 88% 29.91 in 6.0 mi South 10.4 mph - N/A Rain Rain Showers
10:00 PM 51.8 °F - 48.2 °F 88% 29.90 in 6.0 mi South 16.1 mph 21.9 mph N/A Rain Light Rain Showers
10:38 PM 50.0 °F - - N/A% - 15.0 mi South 10.4 mph - N/A   Overcast
11:00 PM 51.8 °F - 48.2 °F 88% 29.90 in 15.0 mi South 12.7 mph - N/A   Overcast
11:14 PM 51.8 °F - - N/A% - 15.0 mi South 10.4 mph - N/A   Overcast